This demonstration page uses our WeatherBlox Daily Observations layout. Learn more.

Left ArrowRight Arrow

41.86663, -103.66717

Hourly Observations for March 9, 2016

Temp ( °F °C ) Dew Point ( °F °C ) Humidity (%) Winds ( mph kmh ) Pressure ( in mb ) Visibility ( mi km ) Precip ( " mm )
12:53 am 00:53 Mostly Clear 30 -1.1 24 -4.4 79 79 N 3 6 29.87 1012 10 16 N/A
1:53 am 01:53 Mostly Clear 27 -2.8 23 -5 85 85 N 7 11 29.87 1012 10 16 N/A
2:53 am 02:53 Clear 29 -1.7 24 -4.4 82 82 NNW 8 13 29.85 1011 10 16 N/A
3:53 am 03:53 Clear 28 -2.2 22 -5.6 78 78 N N/A 29.87 1012 10 16 N/A
4:53 am 04:53 Clear 27 -2.8 22 -5.6 81 81 N N/A 29.90 1012 10 16 N/A
5:53 am 05:53 Clear 26 -3.3 22 -5.6 84 84 NNE 6 9 29.93 1014 10 16 N/A
6:53 am 06:53 Sunny 29 -1.7 24 -4.4 82 82 NW 3 6 29.94 1014 10 16 N/A
7:53 am 07:53 Sunny 34 1.1 27 -2.8 76 76 WNW 3 6 29.96 1015 10 16 N/A
8:53 am 08:53 Sunny 39 3.9 29 -1.7 67 67 NW 6 9 29.98 1015 10 16 N/A
9:53 am 09:53 Sunny 46 7.8 27 -2.8 47 47 WNW 12 19 29.97 1015 10 16 N/A
10:53 am 10:53 Sunny 50 10 27 -2.8 41 41 VRB 6 9 29.95 1014 10 16 N/A
11:53 am 11:53 Sunny 53 11.7 27 -2.8 37 37 WNW 8 13 29.94 1014 10 16 N/A
12:53 pm 12:53 Sunny 54 12.2 27 -2.8 35 35 WNW 7 11 29.93 1014 10 16 N/A
1:53 pm 13:53 Mostly Cloudy 57 13.9 27 -2.8 32 32 W 10 17 29.92 1013 10 16 N/A
2:53 pm 14:53 Partly Cloudy 56 13.3 24 -4.4 29 29 NW 9 15 29.92 1013 10 16 N/A
3:53 pm 15:53 Mostly Cloudy 56 13.3 25 -3.9 30 30 NW 13 20 29.92 1013 10 16 N/A
4:53 pm 16:53 Cloudy 49 9.4 31 -0.6 50 50 SW 22 35 29.99 1016 10 16 N/A
5:09 pm 17:09 Cloudy 46 7.8 34 1.1 63 63 SW 21 33 29.94 1014 10 16 N/A
5:53 pm 17:53 Cloudy with Light Rain 42 5.6 37 2.8 82 82 SW 12 19 30.09 1019 10 16 0.02 0.51
6:53 pm 18:53 Cloudy with Light Rain 42 5.6 37 2.8 82 82 SE 7 11 30.09 1019 10 16 0.01 0.25
7:53 pm 19:53 Mostly Clear 39 3.9 36 2.2 89 89 N N/A 30.10 1019 10 16 N/A
8:53 pm 20:53 Cloudy 39 3.9 37 2.8 93 93 NNE 3 6 30.11 1020 10 16 N/A
9:53 pm 21:53 Mostly Cloudy 37 2.8 34 1.1 89 89 NE 10 17 30.09 1019 10 16 N/A
10:53 pm 22:53 Mostly Clear 34 1.1 32 undefined 92 92 N N/A 30.11 1020 10 16 N/A
11:53 pm 23:53 Clear 32 undefined 31 -0.6 96 96 NW 6 9 30.09 1019 10 16 N/A

Powered by AerisWeather